[[{"header":{"parameterUnit":"m.s-1","parameterCategory":1,"la1":30.2991,"la2":30.254,"lo1":-89.0895,"lo2":-89.0444,"dy":0.0017,"dx":0.0017,"nx":28,"ny":28,"refTime":"2023-09-21T09:00:00:Z","depth":0,"parameterNumber":2,"parameterNumberName":"U-component_of_WINDS"},"data":[0,0,0,0,0,0,0,0,0,0,0,0,0,0,0,0,0,0,0,0,0,0,0,0,0,0,0,0,0,0,0,0,0,0,0,0,0,0,0,0,0,0,0,0,0,0,0,0,0,0,0,0,0,0,0,0,0,0,-3.6031,-3.6032,0,-3.6048,-3.6048,-3.6048,-3.5884,-3.588,-3.5875,-3.5871,-3.589,-3.5895,-3.5899,0,0,0,0,0,0,0,0,0,0,0,0,0,-3.5859,-3.5863,-3.6031,-3.6032,-3.6032,-3.6048,-3.6048,-3.6048,-3.5885,-3.588,-3.5874,-3.5869,-3.5888,-3.5894,-3.59,0,0,0,0,0,0,0,0,0,0,0,0,0,-3.5911,-3.5865,-3.6031,-3.5952,-3.5945,-3.6048,-3.6048,-3.6048,-3.5886,-3.5879,-3.5873,-3.5866,-3.5887,-3.5894,-3.59,-3.608,0,0,-3.5922,-3.5925,0,0,0,0,0,0,0,0,-3.5908,-3.5917,-3.5964,-3.5958,-3.595,-3.5957,-3.5994,-3.6059,-3.5888,-3.5909,-3.5871,-3.5863,-3.5918,-3.5922,-3.594,-3.6081,-3.6082,-3.5923,-3.5927,-3.593,-3.5932,0,0,0,0,0,0,0,-3.5905,-3.5916,-3.6038,-3.5965,-3.5957,-3.5916,-3.5916,-3.6006,-3.5951,-3.5907,-3.5895,-3.5899,-3.5913,-3.5934,-3.5939,-3.6082,-3.5923,-3.5929,-3.5933,-3.5936,-3.637,-3.6377,0,0,0,0,0,0,-3.5912,-3.5914,-3.6037,-3.6038,-3.5912,-3.5925,-3.5925,-3.5962,-3.595,-3.5941,-3.5904,-3.5891,-3.5925,-3.5931,-3.5939,-3.6149,-3.593,-3.5937,-3.5941,-3.6362,-3.6371,-3.6379,0,0,0,0,0,0,-3.5909,-3.5924,-3.6037,-3.5973,-3.5984,-3.5935,-3.5978,-3.5966,-3.5986,-3.5948,-3.5938,-3.5936,-3.592,-3.5929,-3.6046,-3.6147,-3.594,-3.5946,-3.6354,-3.6365,-3.6375,-3.6569,0,0,0,0,0,0,-3.5905,-3.5924,-3.5992,-3.5976,-3.5988,-3.6144,-3.5984,-3.5971,-3.5999,-3.5981,-3.5975,-3.5967,-3.5915,-3.6036,-3.6053,-3.6153,-3.5952,-3.6345,-3.6359,-3.6372,-3.6554,-3.6585,-3.6613,0,0,0,0,0,-3.5899,-3.6047,-3.5997,-3.6012,-3.6072,-3.615,-3.6157,-3.6093,-3.6007,-3.6075,-3.605,-3.5967,-3.6133,-3.605,-3.6067,-3.6171,-3.6338,-3.6355,-3.6371,-3.654,-3.6579,-3.6612,0,0,0,0,0,0,-3.6078,-3.6043,-3.5987,-3.6134,-3.6146,-3.6122,-3.6206,-3.6137,-3.6174,-3.6156,-3.6076,-3.6076,-3.6206,-3.6199,-3.6107,-3.6343,-3.622,-3.6241,-3.6343,-3.638,-3.6409,-3.6409,-3.5958,0,0,0,0,0,-3.6134,-3.62,-3.6166,-3.6299,-3.6308,-3.6256,-3.6288,-3.6237,-3.6247,-3.6251,-3.6235,-3.6248,-3.6302,-3.634,-3.6388,-3.6551,-3.6547,-3.6631,-3.666,-3.6685,-3.6704,-3.6789,-3.6826,-3.6433,-3.6433,-3.6432,0,0,-3.6252,-3.6241,-3.6288,-3.6335,-3.6338,-3.6408,-3.6262,-3.6342,-3.6393,-3.6264,-3.6373,-3.6361,-3.637,-3.651,-3.6571,-3.6509,-3.6811,-3.6705,-3.6725,-3.6731,-3.681,-3.6847,-3.688,-3.6444,-3.6442,-3.644,0,0,-3.6502,-3.65,-3.6611,-3.6616,-3.6623,-3.6587,-3.6614,-3.66,-3.6587,-3.6695,-3.6598,-3.6658,-3.6754,-3.6764,-3.6782,-3.7034,-3.6959,-3.7051,-3.7207,-3.729,-3.7321,-3.7349,-3.7439,-3.7473,-3.707,-3.7071,-3.7071,0,-3.6648,-3.675,-3.6676,-3.6763,-3.6787,-3.667,-3.6782,-3.6791,-3.6814,-3.6832,-3.6761,-3.6878,-3.6876,-3.7017,-3.7078,-3.7096,-3.7124,-3.7053,-3.7323,-3.7349,-3.7373,-3.7459,-3.7493,-3.7082,-3.7081,-3.708,-3.7079,0,-3.6929,-3.7,-3.7088,-3.7112,-3.7145,-3.7244,-3.7186,-3.7228,-3.7174,-3.7146,-3.7257,-3.7249,-3.7294,-3.7323,-3.7272,-3.7457,-3.7418,-3.7336,-3.7212,-3.7424,-3.7503,-3.7535,-3.7098,-3.7094,-3.7091,-3.7088,0,0,-3.7295,-3.7275,-3.7309,-3.7318,-3.7315,-3.7369,-3.7462,-3.7504,-3.7542,-3.7561,-3.7637,-3.772,-3.7643,-3.7664,-3.7612,-3.7686,-3.7886,-3.7595,-3.7594,-3.765,-3.809,-3.8153,-3.8192,-3.7835,-3.7841,-3.7846,-3.809,0,-3.754,-3.7697,-3.7633,-3.7796,-3.7862,-3.7751,-3.7832,-3.7839,-3.7815,-3.7867,-3.7839,-3.7899,-3.7794,-3.7805,-3.7873,-3.7848,-3.7974,-3.7829,-3.7907,-3.7911,-3.791,-3.8233,-3.83,-3.8531,-3.812,-3.8125,-3.8129,0,-3.7847,-3.7877,-3.8047,-3.8031,-3.8056,-3.813,-3.8163,-3.8214,-3.822,-3.8196,-3.8218,-3.815,-3.824,-3.8114,-3.8237,-3.814,-3.8167,-3.8159,-3.8167,-3.8173,-3.8034,-3.825,-3.8603,-3.8638,-3.8177,-3.8173,-3.817,0,-3.8099,-3.8181,-3.8293,-3.8304,-3.8289,-3.8343,-3.834,-3.8338,-3.8367,-3.8396,-3.8414,-3.8453,-3.8476,-3.8507,-3.8451,-3.8365,-3.8583,-3.8452,-3.8567,-3.8569,-3.862,-3.8618,-3.8984,-3.8635,-3.8635,-3.8634,-3.8633,0,-3.838,-3.8488,-3.8406,-3.8476,-3.8593,-3.8518,-3.8637,-3.8621,-3.862,-3.8684,-3.859,-3.8653,-3.8574,-3.8629,-3.8585,-3.8694,-3.8705,-3.8689,-3.8677,-3.8699,-3.8701,-3.8717,-3.87,-3.8643,-3.8641,-3.8639,-3.8638,0,-3.8682,-3.8631,-3.8746,-3.8721,-3.8717,-3.8806,-3.8784,-3.8847,-3.8815,-3.8898,-3.8913,-3.8863,-3.8922,-3.8869,-3.8926,-3.8896,-3.9042,-3.9005,-3.904,-3.9031,-3.9149,-3.914,-3.954,-3.9589,-3.9208,-3.9212,-3.9215,0,-3.8866,-3.8946,-3.8929,-3.8965,-3.8967,-3.9026,-3.9055,-3.8983,-3.9017,-3.9028,-3.909,-3.9141,-3.9179,-3.9279,-3.9248,-3.9291,-3.9256,-3.9393,-3.9262,-3.9281,-3.9259,-3.9256,-3.9264,-3.9421,-3.9425,-3.9429,-3.9432,0,-3.9197,-3.9167,-3.9212,-3.9249,-3.9285,-3.931,-3.9328,-3.9363,-3.9289,-3.9332,-3.9391,-3.942,-3.9477,-3.953,-3.9562,-3.9558,-3.9484,-3.9473,-3.9502,-3.9526,-3.9544,-3.9537,-3.9115,-3.9465,-3.9461,-3.9459,-3.9457,-3.9456,-3.9446,-3.9512,-3.9511,-3.9564,-3.9569,-3.9588,-3.9645,-3.962,-3.9667,-3.9708,-3.9662,-3.9735,-3.9737,-3.9773,-3.9778,-3.9833,-3.9776,-3.9818,-3.9829,-3.9841,-3.9859,-3.9533,-3.9839,-3.9838,-3.9837,-3.9836,-3.9835,0,-3.9774,-3.9767,-3.9816,-3.9843,-3.9885,-3.9808,-3.9824,-3.9864,-3.9929,-3.9936,-3.9974,-4.0042,-4.0092,-4.0064,-4.0107,-4.0157,-4.0124,-4.0171,-4.0167,-4.0168,-3.9907,-3.9878,-4.0197,-4.0197,-4.0197,-4.0197,-4.0197,-4.0197,-3.9949,-4.0058,-4.0028,-4.0137,-4.0129,-4.0199,-4.0214,-4.023,-4.0236,-4.0316,-4.0356,-4.0337,-4.0331,-4.0372,-4.0414,-4.0404,-4.0425,-4.0485,-4.0464,-4.0222,-4.0186,-4.0152,-4.0125,-4.049,-4.049,-4.072,-4.0722,-4.0723]},{"header":{"parameterUnit":"m.s-1","parameterCategory":1,"la1":30.2991,"la2":30.254,"lo1":-89.0895,"lo2":-89.0444,"dy":0.0017,"dx":0.0017,"nx":28,"ny":28,"refTime":"2023-09-21T09:00:00:Z","depth":0,"parameterNumber":3,"parameterNumberName":"V-component_of_WINDS"},"data":[0,0,0,0,0,0,0,0,0,0,0,0,0,0,0,0,0,0,0,0,0,0,0,0,0,0,0,0,0,0,0,0,0,0,0,0,0,0,0,0,0,0,0,0,0,0,0,0,0,0,0,0,0,0,0,0,0,0,-3.2946,-3.2946,0,-3.2993,-3.2994,-3.2994,-3.298,-3.2979,-3.2978,-3.2978,-3.3022,-3.3024,-3.3027,0,0,0,0,0,0,0,0,0,0,0,0,0,-3.2838,-3.284,-3.2946,-3.2946,-3.2947,-3.2993,-3.2994,-3.2994,-3.2981,-3.2979,-3.2978,-3.2977,-3.3022,-3.3024,-3.3027,0,0,0,0,0,0,0,0,0,0,0,0,0,-3.2885,-3.284,-3.2945,-3.2946,-3.2946,-3.2993,-3.2994,-3.2995,-3.2981,-3.2979,-3.2978,-3.2977,-3.3021,-3.3024,-3.3027,-3.3076,0,0,-3.3037,-3.3038,0,0,0,0,0,0,0,0,-3.2882,-3.2889,-3.2945,-3.2946,-3.2946,-3.2979,-3.2972,-3.3022,-3.2981,-3.2967,-3.2977,-3.2976,-3.3009,-3.3013,-3.3025,-3.3078,-3.308,-3.3037,-3.3039,-3.304,-3.3041,0,0,0,0,0,0,0,-3.2879,-3.2886,-3.2964,-3.2946,-3.2947,-3.2941,-3.2947,-3.2981,-3.2996,-3.2969,-3.2968,-3.2974,-3.3009,-3.3022,-3.3026,-3.308,-3.3037,-3.304,-3.3042,-3.3043,-3.3172,-3.3174,0,0,0,0,0,0,-3.2876,-3.2884,-3.2963,-3.2966,-3.291,-3.2945,-3.295,-3.297,-3.2995,-3.2998,-3.2975,-3.2973,-3.3017,-3.3022,-3.3028,-3.3084,-3.304,-3.3043,-3.3045,-3.3171,-3.3173,-3.3174,0,0,0,0,0,0,-3.2873,-3.2883,-3.2961,-3.2925,-3.2934,-3.2948,-3.297,-3.2972,-3.2985,-3.3,-3.3002,-3.2986,-3.3016,-3.3023,-3.3063,-3.3085,-3.3045,-3.3047,-3.3169,-3.3171,-3.3173,-3.3199,0,0,0,0,0,0,-3.287,-3.2882,-3.2902,-3.2925,-3.2936,-3.2998,-3.2972,-3.2974,-3.2991,-3.2989,-3.3011,-3.3013,-3.3016,-3.3059,-3.3067,-3.3089,-3.305,-3.3167,-3.317,-3.3173,-3.3196,-3.3202,-3.3207,0,0,0,0,0,-3.2867,-3.2907,-3.2903,-3.2913,-3.2962,-3.2999,-3.3005,-3.3008,-3.2993,-3.3012,-3.3021,-3.3013,-3.3082,-3.3063,-3.3072,-3.3095,-3.3166,-3.3169,-3.3173,-3.3194,-3.3201,-3.3206,0,0,0,0,0,0,-3.2885,-3.291,-3.2906,-3.2956,-3.2975,-3.2997,-3.3021,-3.3016,-3.3039,-3.3036,-3.3038,-3.3043,-3.3084,-3.3094,-3.3072,-3.3142,-3.3121,-3.3127,-3.3134,-3.3141,-3.3146,-3.3142,-3.3053,0,0,0,0,0,-3.2895,-3.2925,-3.2945,-3.2986,-3.2997,-3.3007,-3.3023,-3.3024,-3.3044,-3.3052,-3.3065,-3.3083,-3.3109,-3.3126,-3.3151,-3.3198,-3.3201,-3.3218,-3.3223,-3.3228,-3.3232,-3.3255,-3.3262,-3.3186,-3.3186,-3.3186,0,0,-3.2916,-3.2933,-3.2952,-3.2991,-3.3006,-3.3035,-3.3014,-3.3046,-3.3067,-3.3056,-3.3095,-3.3105,-3.3125,-3.3169,-3.3189,-3.3178,-3.3254,-3.3232,-3.3235,-3.3237,-3.3259,-3.3266,-3.3273,-3.3188,-3.3188,-3.3187,0,0,-3.2968,-3.2986,-3.3021,-3.3037,-3.306,-3.3067,-3.3075,-3.3097,-3.3103,-3.3142,-3.3135,-3.3159,-3.3204,-3.3218,-3.3231,-3.3287,-3.3279,-3.3295,-3.3322,-3.3345,-3.3351,-3.3356,-3.3374,-3.338,-3.3299,-3.3299,-3.3299,0,-3.2991,-3.3035,-3.3039,-3.3072,-3.3088,-3.3081,-3.3115,-3.313,-3.316,-3.317,-3.3159,-3.3214,-3.3228,-3.3273,-3.3286,-3.3298,-3.3306,-3.3292,-3.335,-3.3355,-3.336,-3.3377,-3.3384,-3.3301,-3.3301,-3.3301,-3.3301,0,-3.306,-3.3091,-3.3117,-3.3146,-3.3166,-3.3199,-3.3206,-3.3225,-3.3223,-3.323,-3.3269,-3.3285,-3.3312,-3.3323,-3.3322,-3.3367,-3.336,-3.3349,-3.3328,-3.3369,-3.3384,-3.3391,-3.3303,-3.3303,-3.3302,-3.3302,0,0,-3.3126,-3.3157,-3.3166,-3.3178,-3.3203,-3.3226,-3.3258,-3.3285,-3.33,-3.3321,-3.3346,-3.3383,-3.3373,-3.3388,-3.3388,-3.3409,-3.3449,-3.3395,-3.3395,-3.3403,-3.3497,-3.3504,-3.3512,-3.3444,-3.3446,-3.3447,-3.3495,0,-3.3178,-3.3236,-3.324,-3.329,-3.3317,-3.331,-3.3338,-3.3355,-3.3362,-3.3385,-3.3392,-3.3418,-3.3404,-3.3412,-3.3432,-3.344,-3.3468,-3.3437,-3.3465,-3.3466,-3.3459,-3.352,-3.3528,-3.3573,-3.3501,-3.3502,-3.3503,0,-3.3248,-3.3271,-3.3324,-3.3344,-3.3355,-3.338,-3.3404,-3.3426,-3.3445,-3.3448,-3.3464,-3.3462,-3.3492,-3.3471,-3.3511,-3.349,-3.3502,-3.3507,-3.3509,-3.3511,-3.3486,-3.3521,-3.3588,-3.3593,-3.3513,-3.3513,-3.3512,0,-3.3287,-3.3331,-3.3369,-3.338,-3.3404,-3.3421,-3.3432,-3.3449,-3.3464,-3.3485,-3.3494,-3.3518,-3.353,-3.3548,-3.3551,-3.3535,-3.3591,-3.357,-3.3593,-3.3592,-3.3603,-3.3602,-3.367,-3.3614,-3.3614,-3.3614,-3.3614,0,-3.3344,-3.3377,-3.3387,-3.3409,-3.3445,-3.3448,-3.3483,-3.3492,-3.3507,-3.353,-3.3526,-3.3547,-3.355,-3.3572,-3.3574,-3.3606,-3.3612,-3.3614,-3.3614,-3.3614,-3.3613,-3.362,-3.3617,-3.3616,-3.3615,-3.3615,-3.3615,0,-3.3394,-3.3402,-3.3442,-3.3461,-3.3467,-3.3492,-3.3508,-3.3528,-3.3535,-3.3564,-3.3571,-3.358,-3.3605,-3.361,-3.364,-3.3641,-3.3678,-3.3676,-3.3672,-3.3671,-3.3693,-3.369,-3.3767,-3.3776,-3.3715,-3.3716,-3.3717,0,-3.3429,-3.3454,-3.3476,-3.3491,-3.3503,-3.3528,-3.3543,-3.3547,-3.3563,-3.3585,-3.3603,-3.3628,-3.3647,-3.3687,-3.3696,-3.3718,-3.3715,-3.374,-3.3718,-3.3716,-3.3712,-3.371,-3.3712,-3.3743,-3.3744,-3.3745,-3.3745,0,-3.349,-3.3492,-3.3516,-3.354,-3.3559,-3.3578,-3.3596,-3.3608,-3.3614,-3.3632,-3.3658,-3.3673,-3.3703,-3.3727,-3.3749,-3.3758,-3.3752,-3.3752,-3.3758,-3.3757,-3.3753,-3.3753,-3.3682,-3.375,-3.375,-3.3749,-3.3749,-3.3749,-3.3532,-3.3553,-3.3571,-3.3597,-3.3611,-3.3627,-3.3647,-3.3656,-3.3678,-3.3703,-3.3704,-3.3731,-3.3747,-3.3776,-3.3786,-3.3806,-3.3798,-3.3807,-3.3809,-3.3811,-3.3812,-3.3751,-3.3811,-3.381,-3.381,-3.381,-3.381,0,-3.3591,-3.3602,-3.3625,-3.3651,-3.367,-3.3664,-3.3683,-3.3699,-3.3724,-3.374,-3.3759,-3.3788,-3.3811,-3.3821,-3.3843,-3.3857,-3.3854,-3.3862,-3.386,-3.3862,-3.3819,-3.3811,-3.3864,-3.3864,-3.3864,-3.3864,-3.3864,-3.3864,-3.3623,-3.3658,-3.3662,-3.3702,-3.3713,-3.3741,-3.3752,-3.3766,-3.3779,-3.3811,-3.383,-3.3837,-3.385,-3.3872,-3.3892,-3.3894,-3.3902,-3.391,-3.3911,-3.3871,-3.3865,-3.386,-3.3852,-3.3912,-3.3912,-3.3952,-3.3952,-3.3952]}]]